DW9434 Weather Reports


Display with metric or nautical units.
time (UTC)temp
F
wind
direction
speed
MPH
gust
MPH
rain 1hr
in
rain 24hr
in
rain mn
in
humidity
%
barometer
mb
20260506061517 52 74 0.0 0.0 0.01 0.07 0.02 89 1015.9
20260506044512 53 74 0.0 0.0 0.00 0.24 0.01 88 1015.1
20260506043012 53 74 0.0 0.0 0.00 0.24 0.01 88 1015.0
20260506041512 53 74 0.0 0.0 0.00 0.24 0.01 88 1015.0
20260506040010 53 332 0.0 0.0 0.00 0.24 0.01 88 1014.9
20260506034510 53 332 0.0 0.0 0.00 0.61 0.01 87 1014.7
20260506033011 54 332 0.0 0.0 0.00 0.61 0.01 87 1014.2
20260506031516 54 332 0.0 0.0 0.00 0.61 0.01 86 1014.4
20260506030008 54 332 0.0 0.0 0.00 0.61 0.01 86 1014.4
20260506024509 54 332 0.0 0.0 0.00 0.79 0.01 85 1014.0
20260506023008 54 332 0.0 0.0 0.00 0.79 0.01 85 1013.9
20260506021507 54 332 0.0 0.0 0.00 0.79 0.01 85 1013.8
20260506020007 54 332 0.0 0.0 0.00 0.79 0.01 85 1013.5
20260506014504 54 332 0.0 0.0 0.00 0.82 0.01 86 1013.3
20260506013111 54 332 0.0 1.0 0.00 0.82 0.01 86 1013.4
20260506011510 54 332 0.0 0.0 0.00 0.82 0.01 86 1013.4
20260506010004 54 332 0.0 0.0 0.00 0.93 0.01 85 1013.4
20260506004505 54 332 0.0 0.0 0.00 0.93 0.01 85 1013.5
20260506003001 54 332 0.0 0.0 0.00 0.93 0.01 85 1013.4
20260506001502 54 332 0.0 0.0 0.00 0.93 0.01 84 1013.3
20260506000100 55 332 0.0 0.0 0.00 0.93 0.01 84 1013.2
20260505234559 55 332 0.0 0.0 0.00 1.03 0.01 84 1013.2
20260505233121 55 332 0.0 0.0 0.00 1.03 0.01 83 1013.2
20260505231559 55 332 0.0 0.0 0.00 1.03 0.01 83 1013.2
20260505230059 56 332 0.0 0.0 0.00 1.03 0.01 82 1013.3
20260505224626 56 332 0.0 1.0 0.00 1.13 0.01 82 1013.3
20260505223019 55 332 0.0 1.0 0.00 1.13 0.01 81 1013.3
20260505221550 55 332 0.0 1.0 0.00 1.13 0.01 82 1013.4
20260505220017 55 332 0.0 1.0 0.00 1.13 0.01 84 1013.5
20260505214513 54 332 0.0 1.0 0.00 1.23 0.01 83 1013.5
20260505213020 54 314 0.0 0.0 0.00 1.23 0.01 84 1013.6
20260505211517 54 314 0.0 1.0 0.00 1.23 0.01 85 1013.5
20260505210012 54 360 0.0 0.0 0.00 1.23 0.01 85 1013.5
20260505204511 54 5 0.0 1.0 0.00 1.26 0.01 85 1013.5
20260505203023 54 12 0.0 1.0 0.00 1.26 0.01 85 1013.4
20260505201511 54 12 0.0 0.0 0.00 1.26 0.01 85 1013.4
20260505200009 54 12 0.0 2.0 0.00 1.26 0.01 85 1013.5
20260505194508 54 107 0.0 1.0 0.00 1.28 0.01 85 1013.5
20260505193009 54 107 0.0 1.0 0.00 1.28 0.01 85 1013.5
20260505191507 54 107 0.0 0.0 0.00 1.28 0.01 84 1013.5
20260505190005 53 107 0.0 0.0 0.00 1.28 0.01 85 1013.3
20260505184502 53 107 0.0 0.0 0.00 1.28 0.01 86 1013.3
20260505183136 52 107 0.0 0.0 0.00 1.28 0.01 89 1013.3
20260505181558 52 107 0.0 1.0 0.00 1.28 0.01 90 1013.1
20260505180056 51 107 0.0 0.0 0.00 1.28 0.01 91 1013.1
20260505174553 51 107 0.0 0.0 0.00 1.28 0.01 92 1013.1
20260505173054 51 107 0.0 0.0 0.00 1.28 0.01 92 1013.0
20260505171557 50 107 0.0 0.0 0.00 1.28 0.01 92 1013.0
20260505170046 50 107 0.0 2.0 0.00 1.28 0.01 92 1013.0
20260505164545 49 96 0.0 2.0 0.00 1.28 0.01 92 1013.0
20260505163044 49 96 0.0 0.0 0.00 1.28 0.01 92 1013.0
20260505161548 49 96 0.0 0.0 0.00 1.28 0.01 93 1012.9
20260505153034 48 96 0.0 0.0 0.00 1.28 0.01 93 1012.7
20260505151535 48 71 0.0 0.0 0.00 1.28 0.01 93 1012.6
20260505124518 47 71 0.0 0.0 0.00 1.28 0.01 92 1011.8
20260505123057 47 71 0.0 0.0 0.00 1.28 0.01 92 1011.5
20260505121557 47 71 0.0 1.0 0.00 1.28 0.01 93 1011.4
20260505120045 47 71 0.0 0.0 0.00 1.28 0.01 92 1011.4
20260505114517 47 71 0.0 0.0 0.00 1.28 0.01 92 1011.6
20260505113021 47 71 0.0 0.0 0.00 1.28 0.01 92 1011.8
20260505111521 47 71 0.0 0.0 0.00 1.28 0.01 92 1011.9
20260505101522 47 71 0.0 0.0 0.00 1.28 0.01 92 1011.9
20260505100024 47 71 0.0 0.0 0.00 1.28 0.01 92 1011.8
20260505094517 47 71 0.0 0.0 0.00 1.28 0.01 92 1011.9
20260505093016 47 71 0.0 2.0 0.00 1.28 0.01 92 1011.9
20260505091524 47 71 0.0 0.0 0.00 1.28 0.01 92 1012.1
20260505090033 47 71 0.0 0.0 0.00 1.28 0.01 92 1012.2
20260505084513 47 71 0.0 2.0 0.00 1.28 0.01 92 1012.4
20260505083015 47 71 0.0 1.0 0.00 1.28 0.01 92 1012.6
20260505081515 47 71 0.0 1.0 0.00 1.28 0.01 92 1012.6
20260505080007 47 71 0.0 1.0 0.01 1.28 0.01 92 1012.6
20260505074506 47 71 0.0 0.0 0.03 1.28 0.01 92 1012.4
20260505073007 47 71 0.0 0.0 0.03 1.28 0.01 92 1012.2
20260505071514 47 71 0.0 0.0 0.05 1.28 0.01 92 1012.5